Вернуться в каталог

THORAD AGENA D DEB

АктивенLEO
NORAD 4734·DEBRIS·🇺🇸 United States

Запущен Apr 8, 1970 с Vandenberg Space Force Base

Loading…

Ближайшие Пролёты (ближайшие 24 часа)

TLE

СвежийSource: Space-Track

Эпоха: Sep 14, 2026, 05:09 UTC

1 04734U 70025CH  26257.21485937  .00000123  00000-0  14542-3 0  9998
2 04734 100.1015 349.1751 0082963 129.2770 231.5780 13.86490948834906

Отслеживайте THORAD AGENA D DEB в реальном времени с AllMySat

Download on the App Store